OPS 4682 DEB, 38411

Orbit data source: Space-Track

OPS 4682 DEB, 38411 is space debris in LEO originally from a launch on Sat, 03 Apr 1965 UTC launched from the Air Force Western Test Range (AFWTR). Debris objects in space refer to the collection of defunct objects orbiting the Earth. Examples of debris include non-operational satellites, rocket bodies, and fragments generated from explosions, collisions, or faulty payload assembly.

Loading next visibility...
Identifier
38411, 1965-027DQ
Orbit
LEO
Country
Flag of USUS
Related business
Manufacturer
Unknown
Mission
Spacecraft
Bus & Motor
Unknown
Mass
Unknown
Launch date (UTC)
1965-04-03 (61 years ago)
Launch vehicle
Unknown
Launch site
Air Force Western Test Range (AFWTR)
Object type
Payload
Rocket body
Debris
Shape & HBR
Unknown shape, 0.1 m
Radar Cross Section
Medium (>0.1 m² and <1 m²)

Expand to show TLE details & history
Last TLE update: 1 week ago

TLE from 1 week ago
0 OPS 4682 DEB
1 38411U 65027DQ  26152.06386508  .00000524  00000-0  17865-2 0  9999
2 38411  90.2544  15.7257 0039814 131.0409 229.4164 12.96896338660783
Epoch: 2026-06-01T01:31Z
TLE epoch observation values (Epoch: 2026-06-01T01:31:57.942Z)
Latitude
-0.00001°
Longitude
103.17771°
Altitude
1,297.045 km
Speed
7.198 km/s
True Right ascension
01h 02m 54s
True Declination
0° 00' 00"
Sunlit
Object was in daylight at epoch
Visualization orbit readout
Latitude
Unknown
Longitude
Unknown
Altitude
Unknown
Speed
Unknown
Apparent Right ascension
Unknown
Apparent Declination
Unknown
Sunlit
N/A
Visualization observer readout
Local Sidereal Time
18:30:21
Azimuth
Unknown
Elevation
Unknown
Doppler factor
Unknown
Orbital elements
Apogee altitude
1,301.859 km
Perigee altitude
1,240.947 km
Semi-major axis
7,649.54 km
Eccentricity
0.00398
Inclination
90.2544°
RAAN
15.7257°
Arg. of periapsis
131.0409°
True anomaly
229.07103°
Mean anomaly
229.4164°
Eccentric anomaly
229.2436°
Mean motion
3.24407 °/min
Orbital period
110.97 mins
BSTAR
0.0017865
Loading maneuver chart data...
Computing Atmospheric mass density...
Loading historical data...
Loading historical data...
Loading historical data...
Loading historical data...
Loading historical data...
Loading historical data...
Loading historical data...

Documentation

Showing up to 5 results
|